MST,Max TemperatureF,Mean TemperatureF,Min TemperatureF,Max Dew PointF,MeanDew PointF,Min DewpointF,Max Humidity, Mean Humidity, Min Humidity, Max Sea Level PressureIn, Mean Sea Level PressureIn, Min Sea Level PressureIn, Max VisibilityMiles, Mean VisibilityMiles, Min VisibilityMiles, Max Wind SpeedMPH, Mean Wind SpeedMPH, Max Gust SpeedMPH,PrecipitationIn, CloudCover, Events, WindDirDegrees
2013-12-1,52,39,26,25,23,20,75,53,30,30.14,29.94,29.74,10,10,10,16,7,21,0.00,0,,24
2013-12-2,51,41,31,26,24,21,64,48,32,29.71,29.51,29.36,10,10,10,48,19,59,T,0,Rain,273
2013-12-3,31,17,2,25,10,-2,100,85,69,30.08,29.74,29.48,10,2,0,20,9,23,0.22,8,Fog-Snow,65
2013-12-4,4,-4,-13,-1,-6,-17,95,82,68,30.34,30.05,29.81,10,6,1,13,6,15,0.02,5,Snow,157
2013-12-5,3,-8,-19,-7,-13,-19,87,78,69,30.40,30.33,30.28,10,10,7,10,2,11,0.00,1,,211
2013-12-6,2,-5,-12,-7,-12,-15,86,78,69,30.45,30.34,29.99,10,8,4,10,2,10,T,4,,232
2013-12-7,-2,-9,-16,-9,-13,-18,87,79,71,30.38,30.15,29.78,10,7,2,8,1,10,0.00,4,,180
2013-12-8,6,-5,-16,0,-7,-17,87,79,71,30.31,30.15,29.96,10,8,2,10,3,11,T,3,Snow,298
2013-12-9,27,9,-9,4,-4,-13,92,65,38,30.32,30.26,30.17,10,10,10,14,4,16,0.00,0,,192
2013-12-10,27,15,3,12,5,-1,76,63,50,30.38,30.22,30.12,10,10,10,16,6,19,0.00,1,,189
2013-12-11,27,15,3,12,5,-1,86,68,50,30.50,30.42,30.35,10,10,9,9,2,11,0.00,0,,286
2013-12-12,29,18,6,15,9,3,80,68,55,30.45,30.28,30.06,10,10,9,12,3,12,0.00,0,,342
2013-12-13,30,22,14,20,13,8,80,72,63,30.35,30.14,29.97,10,9,2,13,4,14,0.00,1,,115
2013-12-14,39,26,12,22,14,8,74,59,44,30.40,30.31,30.23,10,10,8,16,3,19,0.00,0,,179
2013-12-15,47,35,23,25,19,16,68,55,41,30.23,30.18,30.09,10,10,10,16,5,18,0.00,0,,161
2013-12-16,49,36,22,20,16,14,68,47,26,30.31,30.24,30.16,10,10,10,20,5,22,0.00,0,,247
2013-12-17,50,37,24,24,18,14,63,46,29,30.35,30.19,29.98,10,10,10,14,4,14,0.00,0,,183
2013-12-18,52,41,30,21,18,13,59,43,26,29.96,29.78,29.58,10,10,10,14,5,21,0.00,0,,199
2013-12-19,37,23,8,26,15,6,96,65,34,30.04,29.80,29.54,10,3,0,15,5,17,0.18,7,Fog-Snow,50
2013-12-20,16,8,0,8,4,-2,100,88,76,30.04,29.88,29.71,10,6,0,9,3,11,0.00,2,Fog,66
2013-12-21,28,17,6,17,10,5,92,74,55,30.09,29.86,29.68,10,9,5,12,3,16,0.00,3,,220
2013-12-22,35,19,3,16,9,3,88,64,40,30.33,30.16,30.04,10,10,7,14,3,17,0.00,5,,266
2013-12-23,35,20,4,21,12,4,92,75,58,30.37,30.27,30.06,10,10,10,13,4,15,0.00,0,,276
2013-12-24,45,30,15,24,15,8,75,54,32,30.40,30.18,29.94,10,10,10,28,8,35,T,2,,251
2013-12-25,32,23,13,14,9,3,73,60,47,30.50,30.43,30.32,10,10,9,15,4,16,0.00,0,,350
2013-12-26,42,32,22,24,18,12,75,61,47,30.38,30.30,30.22,10,10,9,25,4,31,0.00,0,,69
2013-12-27,41,29,16,24,20,16,84,67,50,30.40,30.25,30.08,10,10,8,13,3,14,0.00,0,,317
2013-12-28,38,29,19,27,22,18,100,78,56,30.35,30.16,29.99,10,4,0,18,5,23,0.27,6,Fog-Snow,311
2013-12-29,32,20,7,19,13,8,100,77,53,30.38,30.21,30.04,10,4,0,18,3,19,T,5,Fog,50
2013-12-30,37,27,16,23,14,10,80,63,45,30.32,30.20,30.07,10,10,10,16,5,21,0.00,0,,204
2013-12-31,47,33,19,27,20,12,75,58,40,30.08,30.01,29.89,10,10,10,22,9,33,0.00,2,,233